Precipitable_Water
0.46 0.47 0.49 0.51 0.51 0.52 0.48 0.49 0.39 0.43 0.43 0.48 0.52 0.51 0.53 0.54 0.52 0.51 0.54 0.57 0.59 0.62 0.65 0.67 0.64 0.61 0.63 0.66 0.62 0.59 0.56 0.55 0.55 0.52 0.49 0.45 0.39 0.32 0.29 0.28 0.27 0.26 0.26 0.26
0.42 0.45 0.45 0.42 0.45 0.47 0.46 0.47 0.47 0.46 0.43 0.57 0.55 0.55 0.52 0.53 0.48 0.49 0.53 0.58 0.61 0.66 0.68 0.66 0.63 0.60 0.65 0.64 0.58 0.57 0.55 0.54 0.53 0.50 0.46 0.39 0.33 0.30 0.28 0.27 0.26 0.27 0.26 0.24
0.38 0.43 0.43 0.35 0.39 0.41 0.43 0.45 0.44 0.37 0.46 0.54 0.52 0.52 0.46 0.44 0.45 0.47 0.53 0.59 0.63 0.67 0.68 0.66 0.64 0.64 0.63 0.58 0.56 0.54 0.53 0.52 0.50 0.46 0.40 0.33 0.30 0.28 0.27 0.26 0.27 0.26 0.24 0.22
0.39 0.40 0.28 0.39 0.46 0.46 0.42 0.43 0.47 0.47 0.51 0.52 0.53 0.55 0.51 0.51 0.48 0.51 0.57 0.62 0.65 0.66 0.68 0.68 0.66 0.65 0.59 0.54 0.53 0.53 0.52 0.49 0.46 0.41 0.35 0.30 0.28 0.26 0.25 0.27 0.26 0.24 0.21 0.19
0.39 0.37 0.43 0.42 0.43 0.43 0.41 0.40 0.49 0.46 0.49 0.52 0.56 0.54 0.52 0.57 0.59 0.59 0.62 0.65 0.67 0.71 0.70 0.68 0.67 0.59 0.53 0.50 0.51 0.51 0.48 0.44 0.41 0.36 0.31 0.28 0.26 0.25 0.26 0.26 0.24 0.21 0.19 0.18
0.45 0.34 0.31 0.42 0.47 0.50 0.51 0.35 0.49 0.49 0.48 0.47 0.51 0.41 0.48 0.59 0.62 0.62 0.64 0.67 0.68 0.70 0.69 0.67 0.56 0.51 0.48 0.48 0.48 0.46 0.43 0.40 0.37 0.33 0.28 0.26 0.24 0.25 0.26 0.24 0.21 0.19 0.17 0.17
0.46 0.41 0.43 0.50 0.51 0.51 0.35 0.39 0.50 0.49 0.48 0.49 0.48 0.53 0.60 0.62 0.62 0.65 0.66 0.65 0.66 0.65 0.59 0.51 0.47 0.46 0.46 0.47 0.44 0.42 0.39 0.38 0.34 0.29 0.26 0.23 0.25 0.26 0.24 0.20 0.18 0.17 0.16 0.16
0.49 0.42 0.36 0.59 0.52 0.43 0.52 0.56 0.54 0.53 0.54 0.54 0.56 0.58 0.59 0.60 0.59 0.60 0.61 0.63 0.58 0.50 0.45 0.43 0.45 0.47 0.45 0.43 0.41 0.39 0.39 0.34 0.28 0.25 0.23 0.25 0.26 0.24 0.21 0.19 0.17 0.16 0.16 0.16
0.47 0.48 0.60 0.60 0.58 0.62 0.63 0.58 0.57 0.55 0.57 0.57 0.56 0.57 0.58 0.59 0.60 0.58 0.53 0.50 0.47 0.42 0.42 0.44 0.45 0.44 0.41 0.40 0.39 0.39 0.34 0.27 0.23 0.22 0.25 0.26 0.24 0.21 0.19 0.18 0.17 0.16 0.15 0.16
0.50 0.56 0.58 0.61 0.65 0.65 0.62 0.57 0.62 0.63 0.62 0.63 0.60 0.61 0.59 0.56 0.52 0.48 0.44 0.41 0.42 0.43 0.42 0.41 0.43 0.42 0.39 0.40 0.39 0.31 0.25 0.22 0.22 0.24 0.26 0.25 0.22 0.20 0.19 0.17 0.16 0.16 0.16 0.17
0.54 0.60 0.61 0.61 0.59 0.58 0.60 0.69 0.66 0.65 0.63 0.60 0.57 0.55 0.53 0.49 0.45 0.43 0.43 0.44 0.44 0.42 0.40 0.40 0.42 0.41 0.40 0.38 0.28 0.23 0.21 0.22 0.24 0.26 0.25 0.23 0.21 0.19 0.18 0.18 0.19 0.19 0.19 0.19
0.46 0.53 0.50 0.52 0.60 0.66 0.64 0.63 0.64 0.63 0.62 0.63 0.61 0.54 0.50 0.46 0.45 0.45 0.44 0.43 0.41 0.41 0.41 0.42 0.41 0.38 0.35 0.27 0.23 0.22 0.22 0.24 0.25 0.25 0.24 0.22 0.19 0.18 0.19 0.19 0.20 0.20 0.20 0.20
0.52 0.60 0.60 0.63 0.66 0.66 0.61 0.59 0.60 0.59 0.59 0.54 0.53 0.48 0.43 0.40 0.42 0.40 0.39 0.39 0.39 0.41 0.42 0.40 0.37 0.33 0.25 0.23 0.22 0.22 0.23 0.25 0.25 0.25 0.23 0.20 0.19 0.18 0.16 0.17 0.18 0.18 0.18 0.19
0.60 0.59 0.54 0.57 0.54 0.60 0.60 0.61 0.60 0.57 0.54 0.50 0.45 0.41 0.39 0.37 0.37 0.36 0.36 0.38 0.41 0.40 0.39 0.37 0.30 0.24 0.22 0.22 0.23 0.23 0.25 0.26 0.26 0.24 0.22 0.20 0.19 0.17 0.16 0.15 0.14 0.15 0.17 0.18
0.51 0.53 0.55 0.57 0.58 0.58 0.59 0.58 0.54 0.50 0.48 0.42 0.39 0.36 0.34 0.32 0.33 0.34 0.36 0.38 0.39 0.37 0.35 0.29 0.23 0.21 0.22 0.22 0.23 0.24 0.26 0.26 0.26 0.25 0.22 0.20 0.18 0.17 0.16 0.15 0.15 0.15 0.16 0.16
0.56 0.59 0.59 0.56 0.58 0.60 0.59 0.55 0.49 0.41 0.38 0.37 0.33 0.33 0.35 0.36 0.35 0.35 0.37 0.37 0.35 0.33 0.27 0.23 0.21 0.21 0.22 0.23 0.24 0.26 0.27 0.27 0.26 0.23 0.21 0.18 0.17 0.16 0.15 0.15 0.15 0.15 0.14 0.15
0.51 0.46 0.48 0.45 0.49 0.51 0.49 0.46 0.39 0.36 0.35 0.33 0.34 0.36 0.35 0.34 0.37 0.37 0.37 0.36 0.33 0.26 0.23 0.21 0.21 0.23 0.24 0.25 0.26 0.26 0.27 0.26 0.24 0.21 0.18 0.17 0.16 0.15 0.15 0.15 0.14 0.14 0.15 0.16
0.54 0.54 0.54 0.51 0.49 0.47 0.43 0.40 0.39 0.37 0.35 0.35 0.35 0.35 0.37 0.38 0.36 0.35 0.34 0.32 0.26 0.22 0.21 0.22 0.23 0.23 0.25 0.26 0.27 0.28 0.26 0.24 0.21 0.18 0.18 0.16 0.16 0.16 0.15 0.15 0.14 0.14 0.15 0.17
0.58 0.57 0.56 0.54 0.51 0.45 0.42 0.38 0.36 0.34 0.35 0.34 0.34 0.37 0.39 0.38 0.35 0.32 0.31 0.27 0.22 0.20 0.22 0.23 0.24 0.25 0.27 0.28 0.28 0.27 0.24 0.21 0.19 0.18 0.16 0.16 0.15 0.14 0.14 0.14 0.14 0.15 0.16 0.17
0.57 0.55 0.51 0.45 0.42 0.38 0.35 0.34 0.34 0.33 0.34 0.38 0.39 0.37 0.35 0.34 0.33 0.31 0.29 0.24 0.22 0.23 0.24 0.24 0.26 0.27 0.28 0.28 0.26 0.25 0.21 0.19 0.18 0.16 0.15 0.14 0.14 0.13 0.14 0.14 0.15 0.16 0.17 0.18
0.51 0.47 0.42 0.39 0.36 0.35 0.34 0.34 0.33 0.34 0.37 0.36 0.34 0.32 0.31 0.31 0.31 0.28 0.24 0.22 0.24 0.25 0.26 0.27 0.28 0.29 0.27 0.25 0.23 0.20 0.19 0.17 0.15 0.14 0.13 0.13 0.13 0.14 0.14 0.15 0.17 0.17 0.18 0.18
0.44 0.40 0.37 0.35 0.33 0.32 0.34 0.35 0.37 0.36 0.34 0.33 0.32 0.32 0.30 0.29 0.27 0.26 0.25 0.24 0.26 0.27 0.28 0.29 0.28 0.26 0.24 0.21 0.20 0.18 0.17 0.15 0.14 0.14 0.14 0.14 0.14 0.15 0.16 0.17 0.17 0.18 0.19 0.19
0.40 0.38 0.34 0.32 0.33 0.34 0.37 0.37 0.36 0.35 0.33 0.32 0.31 0.30 0.28 0.27 0.26 0.24 0.24 0.28 0.29 0.30 0.28 0.25 0.24 0.20 0.19 0.19 0.18 0.16 0.15 0.14 0.14 0.14 0.14 0.15 0.15 0.16 0.17 0.18 0.18 0.19 0.19 0.18
0.39 0.34 0.35 0.37 0.38 0.37 0.35 0.35 0.35 0.34 0.33 0.32 0.31 0.30 0.28 0.27 0.27 0.29 0.29 0.30 0.27 0.25 0.23 0.20 0.19 0.19 0.19 0.17 0.16 0.15 0.15 0.14 0.14 0.15 0.15 0.16 0.17 0.18 0.18 0.19 0.19 0.19 0.18 0.18
0.37 0.37 0.38 0.37 0.36 0.35 0.35 0.35 0.34 0.33 0.32 0.31 0.30 0.30 0.30 0.30 0.29 0.29 0.26 0.25 0.23 0.21 0.18 0.18 0.18 0.18 0.17 0.16 0.15 0.14 0.14 0.14 0.15 0.16 0.16 0.17 0.18 0.18 0.19 0.19 0.19 0.18 0.18 0.19
0.37 0.37 0.37 0.37 0.36 0.36 0.35 0.35 0.33 0.32 0.31 0.29 0.30 0.30 0.30 0.28 0.26 0.25 0.23 0.21 0.19 0.18 0.17 0.17 0.17 0.16 0.16 0.15 0.14 0.14 0.14 0.15 0.15 0.16 0.18 0.18 0.19 0.19 0.19 0.18 0.18 0.18 0.18 0.19
0.38 0.37 0.35 0.35 0.36 0.36 0.35 0.34 0.32 0.31 0.31 0.30 0.29 0.28 0.26 0.24 0.23 0.21 0.19 0.18 0.17 0.17 0.16 0.16 0.16 0.15 0.14 0.14 0.14 0.14 0.15 0.16 0.17 0.18 0.19 0.19 0.19 0.19 0.18 0.18 0.18 0.18 0.19 0.20
Wind_Speed
12 12 22 24 23 25 26 23 18 18 21 18 16 15 16 15 17 18 19 20 21 21 20 21 21 21 21 22 22 23 25 27 29 32 35 38 39 41 42 42 44 45 47 49
13 14 16 21 24 25 27 28 26 24 22 17 15 15 16 18 18 19 20 21 22 22 21 21 22 22 22 23 23 25 27 29 32 35 37 39 41 42 43 44 45 47 49 50
11 13 15 20 26 27 26 27 26 27 24 24 19 19 19 18 18 20 20 20 21 22 22 22 22 22 22 23 24 26 28 31 34 36 39 41 42 43 43 45 47 49 50 51
10 12 14 12 13 24 27 26 26 26 23 19 20 19 16 17 18 18 18 19 19 20 20 21 21 21 22 23 25 27 30 32 36 38 40 42 42 43 45 46 48 50 51 53
12 13 13 14 13 15 21 22 25 23 23 19 16 15 15 15 15 15 16 16 17 18 19 20 20 21 23 24 26 28 31 34 37 40 41 41 42 44 46 48 50 51 52 54
11 11 10 6 8 10 13 15 15 21 22 19 18 18 16 15 15 14 14 16 17 17 18 20 20 21 23 25 27 30 33 37 39 40 40 41 43 45 47 49 51 52 54 56
13 11 11 8 9 9 11 7 8 12 15 17 18 15 13 14 14 14 15 15 16 17 18 19 20 21 24 26 29 32 35 38 38 38 39 41 44 46 49 51 52 54 56 57
15 12 12 9 10 12 8 8 9 9 11 12 12 12 12 13 13 14 15 15 16 17 17 19 21 23 25 28 31 34 36 36 36 38 40 42 45 48 50 52 54 55 56 56
15 12 9 9 8 10 11 10 10 10 10 11 11 12 12 12 13 14 14 15 16 17 18 20 22 25 27 30 32 34 33 34 36 38 41 43 46 49 51 53 55 56 56 56
13 12 12 13 11 11 10 9 9 9 9 9 10 10 11 12 13 14 15 16 17 18 20 22 24 27 29 31 31 31 32 35 37 39 42 45 47 50 52 54 55 55 55 54
13 13 11 12 12 11 9 9 8 7 8 8 9 10 11 12 13 15 16 17 19 21 22 24 26 28 28 28 29 31 33 35 38 41 45 47 49 51 53 55 55 55 54 53
11 13 12 12 12 11 10 9 9 8 8 9 10 11 13 14 15 16 18 19 21 22 23 25 26 26 26 27 29 32 34 37 40 44 46 48 51 53 54 55 55 54 53 51
10 10 9 10 11 12 11 10 10 10 10 11 12 13 14 15 16 17 19 20 22 23 24 24 24 25 26 28 30 33 36 40 43 45 47 50 52 54 55 54 53 52 51 50
11 10 9 12 13 13 12 11 11 11 12 13 13 14 14 15 17 18 20 21 22 22 22 23 23 25 27 29 32 35 39 42 45 47 49 51 53 54 54 53 52 50 49 49
14 14 14 13 13 13 13 13 13 13 13 13 13 14 15 17 18 20 21 21 21 21 22 23 24 26 28 31 35 38 41 44 46 49 50 52 53 53 52 51 50 49 49 48
15 14 13 14 15 15 14 15 14 13 13 13 14 15 17 19 20 20 20 20 20 21 22 23 25 28 31 34 38 40 43 46 48 50 51 52 52 51 50 49 48 47 47 45
15 14 14 14 15 15 15 14 13 13 13 14 15 17 18 19 20 19 20 20 21 21 22 25 28 31 34 37 40 42 45 47 49 50 50 51 50 49 48 48 46 45 43 41
17 16 16 16 15 14 13 12 12 13 14 15 16 18 19 19 20 20 20 20 21 22 25 27 30 33 37 39 42 45 47 48 49 50 50 50 49 48 46 45 45 43 40 38
17 15 14 14 13 13 12 12 13 14 15 17 18 19 19 19 20 20 20 21 23 25 27 29 33 36 39 41 44 46 47 48 49 50 49 49 47 45 44 43 42 39 37 34
14 13 13 12 12 12 12 12 13 15 16 17 17 18 18 19 19 20 21 23 25 27 29 32 36 38 41 43 45 46 47 48 49 49 48 46 44 43 43 41 38 36 33 29
13 13 12 12 11 11 12 13 15 16 16 17 17 18 18 19 20 21 23 25 26 29 32 35 38 40 42 44 46 47 47 48 49 47 45 44 42 42 39 37 35 32 28 26
13 13 12 12 12 12 13 14 15 16 16 16 17 18 19 20 21 23 25 27 29 32 35 37 39 41 43 45 46 47 48 48 47 45 43 41 41 38 36 34 31 27 25 24
13 12 12 12 13 13 13 14 15 15 16 17 18 19 20 22 23 25 27 29 32 35 37 39 40 43 45 45 46 47 47 46 44 42 41 40 37 35 33 31 27 25 23 20
13 12 12 12 13 13 13 15 15 16 17 18 19 20 22 23 25 27 29 32 34 36 38 40 42 44 45 45 46 47 45 43 42 40 39 37 35 33 30 27 24 23 20 16
12 12 12 12 13 14 15 16 17 17 18 19 20 22 24 26 27 29 32 34 36 38 39 41 42 44 45 46 46 44 43 41 40 38 36 35 33 30 28 26 23 20 15 11
12 12 13 14 15 16 17 18 18 19 20 21 23 24 26 28 30 32 34 35 37 39 40 41 43 45 46 45 44 42 40 39 37 35 35 33 31 29 26 23 19 15 10 6
12 13 14 15 17 17 18 19 20 21 22 23 25 26 28 30 31 33 35 36 38 39 41 43 44 45 45 42 40 39 38 36 35 35 33 31 29 25 21 18 14 9 5 3
Wind_Direction
202 195 197 207 212 215 219 224 226 228 229 232 237 242 243 238 233 231 231 233 238 243 249 254 260 268 272 277 282 287 293 298 301 305 308 309 311 311 312 312 312 312 312 313
216 219 219 219 218 221 223 227 234 239 239 242 247 247 244 242 237 236 238 240 242 247 252 258 264 269 273 277 283 289 294 299 303 306 308 310 311 312 312 312 313 313 313 314
216 216 222 234 229 227 230 233 237 239 243 242 243 246 248 245 240 242 244 245 246 250 256 262 266 270 274 279 285 290 296 300 304 307 309 311 311 312 312 313 313 314 314 314
218 211 227 234 234 231 230 236 237 242 242 247 238 244 246 249 247 246 249 248 250 255 259 264 268 271 276 282 287 292 297 302 305 308 310 311 312 312 313 314 314 315 315 315
219 221 248 253 232 226 222 238 236 238 238 238 232 233 248 252 250 249 249 251 255 260 263 266 270 274 279 284 290 295 300 304 307 309 310 311 312 313 314 315 315 315 316 316
211 223 226 220 226 228 220 246 239 232 232 223 224 240 245 241 244 248 253 258 261 264 266 270 273 277 282 288 294 299 302 306 308 309 310 312 313 314 315 316 316 316 316 316
217 230 242 227 220 213 222 238 245 229 220 221 230 249 230 236 244 252 257 261 264 266 271 273 277 281 287 293 298 301 304 307 308 310 311 313 314 316 316 317 317 317 317 317
215 223 239 219 217 229 234 236 233 224 220 219 224 231 236 243 249 256 260 263 267 271 275 278 282 288 293 297 300 303 306 307 309 311 313 314 316 317 317 318 317 318 318 318
216 222 225 219 236 239 237 231 229 224 225 226 229 234 239 245 254 260 262 267 271 275 279 284 289 293 296 300 302 305 306 308 310 312 314 316 317 318 318 319 319 319 319 319
221 227 233 236 240 241 230 229 224 219 220 226 229 237 245 253 259 265 269 272 276 280 284 288 292 296 299 302 304 306 308 310 312 314 316 318 318 319 319 320 320 320 320 320
228 231 231 233 232 228 223 216 215 223 231 235 239 249 257 264 269 272 275 278 281 285 289 292 295 299 301 303 306 308 310 312 314 316 318 318 319 320 320 320 320 320 319 319
231 223 232 227 218 214 215 220 226 232 244 258 260 264 269 273 276 277 279 282 285 289 292 295 298 300 302 305 307 310 312 314 316 317 319 319 320 321 321 320 320 320 319 319
228 212 232 216 219 223 227 232 239 247 254 262 269 270 274 277 280 282 284 286 289 292 295 297 299 301 304 307 309 312 314 316 318 319 320 321 321 321 321 322 321 321 321 320
220 219 230 231 237 231 232 238 247 256 263 267 269 274 279 283 286 287 289 291 293 295 296 298 300 303 306 309 312 314 315 317 318 319 320 321 321 321 321 322 322 322 322 322
233 248 244 238 231 232 238 245 252 258 262 265 272 277 283 287 289 292 293 294 294 296 297 300 302 306 309 312 314 315 316 318 319 320 320 321 321 321 322 322 322 322 323 323
239 244 242 237 237 239 244 249 253 254 260 267 275 283 287 291 293 295 294 294 295 297 299 301 305 308 311 314 315 316 317 318 319 320 320 321 322 322 322 322 323 323 324 325
234 241 240 239 238 237 241 245 249 254 262 272 280 287 291 294 295 295 295 295 298 300 302 304 307 310 312 314 316 317 318 319 319 320 321 322 322 322 322 322 323 324 325 326
242 242 238 234 232 231 234 241 249 260 271 279 285 290 293 294 294 295 296 297 300 302 304 307 309 311 313 315 316 318 318 319 320 320 321 321 321 322 322 323 324 324 325 327
232 232 228 223 224 227 233 244 258 270 278 284 289 291 292 294 296 297 298 299 301 303 306 308 311 312 314 316 317 318 319 319 320 321 321 321 321 322 323 324 324 325 326 327
218 216 214 216 224 231 243 256 267 277 284 288 290 292 294 297 298 299 300 301 304 307 308 310 312 314 315 316 318 318 319 320 320 321 321 321 321 322 323 324 324 325 326 327
211 212 216 222 231 244 255 266 275 282 286 289 291 295 297 299 300 301 302 304 306 308 310 312 313 315 316 317 318 319 319 320 320 320 320 320 321 322 323 324 325 325 326 327
211 216 222 230 242 255 267 275 281 285 288 291 294 296 298 300 302 303 305 306 308 310 312 313 314 316 317 317 318 319 319 320 319 320 320 321 321 322 323 323 324 325 325 327
217 223 232 241 252 262 271 279 284 287 290 292 294 296 299 302 303 304 306 309 310 312 313 314 315 316 317 317 318 319 319 319 319 319 320 321 321 321 321 322 322 323 324 325
223 231 241 251 258 265 274 283 287 291 292 295 297 299 301 303 306 308 309 310 312 314 315 315 316 317 317 318 319 319 319 319 319 319 320 320 320 320 320 320 319 320 321 321
228 239 249 256 265 274 280 284 288 290 293 296 299 302 304 306 308 309 310 311 313 314 315 316 317 318 318 318 319 318 319 318 319 319 319 320 319 319 318 317 316 316 316 316
238 249 257 267 274 278 282 285 288 290 293 297 300 303 305 307 309 310 311 312 314 315 316 316 317 318 318 319 319 319 319 319 319 319 319 319 318 317 316 315 313 310 305 301
252 258 266 273 279 282 284 286 288 292 295 297 301 304 306 307 309 310 312 313 315 315 316 317 318 318 318 319 319 319 319 319 319 319 320 319 318 316 315 314 310 297 276 265